�������l�o���
Date,Time,MP-1(��Sv/h),MP-2(��Sv/h),MP-3(��Sv/h),MP-4(��Sv/h),MP-5(��Sv/h),MP-6(��Sv/h),MP-7(��Sv/h),MP-8(��Sv/h),����,����(m/s),���J
2017/01/09,00:00,1.085,1.782,1.174,2.045,1.394,0.568,1.027,0.956,�k��,11.9,�L
2017/01/09,00:10,1.085,1.777,1.172,2.042,1.392,0.566,1.028,0.956,�k�k��,11.8,�L
2017/01/09,00:20,1.084,1.772,1.172,2.039,1.388,0.566,1.025,0.954,�k�k��,11.1,�L
2017/01/09,00:30,1.082,1.770,1.167,2.035,1.388,0.565,1.028,0.956,�k�k��,12.7,�L
2017/01/09,00:40,1.079,1.771,1.169,2.031,1.384,0.564,1.026,0.955,�k�k��,11.9,�L
2017/01/09,00:50,1.080,1.763,1.166,2.025,1.382,0.565,1.026,0.952,�k�k��,12.2,�L
2017/01/09,01:00,1.077,1.760,1.162,2.020,1.380,0.564,1.024,0.952,�k�k��,13.8,�L
2017/01/09,01:10,1.076,1.758,1.162,2.018,1.376,0.564,1.022,0.950,�k�k��,11.3,�L
2017/01/09,01:20,1.074,1.755,1.160,2.011,1.375,0.563,1.022,0.951,�k�k��,13.2,�L
2017/01/09,01:30,1.075,1.752,1.157,2.009,1.373,0.561,1.020,0.950,�k�k��,12.1,�L
2017/01/09,01:40,1.072,1.750,1.158,2.008,1.371,0.563,1.021,0.950,�k�k��,12.4,�L
2017/01/09,01:50,1.070,1.751,1.157,2.001,1.368,0.563,1.020,0.950,�k,12.8,�L
2017/01/09,02:00,1.069,1.749,1.155,2.000,1.367,0.561,1.020,0.949,�k,10.0,�L
2017/01/09,02:10,1.069,1.746,1.153,1.999,1.367,0.562,1.017,0.948,�k�k��,9.9,�L
2017/01/09,02:20,1.065,1.739,1.150,1.992,1.360,0.561,1.017,0.949,�k�k��,9.5,�L
2017/01/09,02:30,1.062,1.734,1.147,1.987,1.359,0.560,1.014,0.946,�k�k��,10.8,�L
2017/01/09,02:40,1.062,1.730,1.147,1.979,1.359,0.560,1.014,0.946,�k�k��,11.6,�L
2017/01/09,02:50,1.059,1.728,1.146,1.980,1.353,0.560,1.013,0.945,�k�k��,11.3,�L
2017/01/09,03:00,1.063,1.731,1.144,1.981,1.354,0.562,1.015,0.945,�k�k��,10.8,�L
2017/01/09,03:10,1.061,1.733,1.143,1.979,1.353,0.559,1.013,0.943,�k�k��,12.5,�L
2017/01/09,03:20,1.059,1.733,1.146,1.985,1.353,0.560,1.012,0.942,�k�k��,12.8,�L
2017/01/09,03:30,1.061,1.732,1.144,1.981,1.350,0.559,1.011,0.942,�k�k��,11.4,�L
2017/01/09,03:40,1.058,1.731,1.142,1.979,1.349,0.559,1.012,0.945,�k�k��,13.0,�L
2017/01/09,03:50,1.058,1.737,1.144,1.977,1.355,0.558,1.013,0.943,�k�k��,12.7,�L
2017/01/09,04:00,1.057,1.732,1.141,1.976,1.350,0.557,1.010,0.944,�k�k��,12.7,�L
2017/01/09,04:10,1.055,1.729,1.141,1.976,1.350,0.558,1.010,0.945,�k�k��,10.5,�L
2017/01/09,04:20,1.057,1.732,1.141,1.977,1.351,0.557,1.012,0.942,�k�k��,13.0,�L
2017/01/09,04:30,1.056,1.735,1.140,1.976,1.352,0.557,1.010,0.943,�k�k��,13.1,�L
2017/01/09,04:40,1.056,1.731,1.141,1.977,1.350,0.558,1.010,0.943,�k�k��,13.1,�L
2017/01/09,04:50,1.058,1.734,1.141,1.973,1.349,0.557,1.008,0.942,�k�k��,14.2,�L
2017/01/09,05:00,1.056,1.730,1.138,1.974,1.349,0.558,1.008,0.943,�k�k��,12.7,�L
2017/01/09,05:10,1.053,1.729,1.139,1.973,1.349,0.558,1.010,0.942,�k�k��,13.0,�L
2017/01/09,05:20,1.052,1.727,1.134,1.966,1.345,0.556,1.008,0.942,�k�k��,12.7,�L
2017/01/09,05:30,1.053,1.725,1.136,1.967,1.345,0.556,1.008,0.942,�k�k��,13.0,�L
2017/01/09,05:40,1.054,1.725,1.138,1.967,1.345,0.555,1.009,0.942,�k�k��,13.1,�L
2017/01/09,05:50,1.052,1.726,1.136,1.968,1.343,0.558,1.009,0.942,�k�k��,14.6,�L
2017/01/09,06:00,1.050,1.721,1.135,1.966,1.339,0.558,1.009,0.942,�k�k��,13.8,�L
2017/01/09,06:10,1.049,1.723,1.135,1.964,1.341,0.555,1.008,0.943,�k�k��,14.1,�L
2017/01/09,06:20,1.048,1.721,1.134,1.964,1.339,0.557,1.009,0.939,�k�k��,14.4,�L
2017/01/09,06:30,1.048,1.722,1.134,1.964,1.339,0.557,1.007,0.941,�k�k��,12.2,�L
2017/01/09,06:40,1.048,1.722,1.135,1.964,1.339,0.557,1.008,0.940,�k�k��,13.8,�L
2017/01/09,06:50,1.048,1.720,1.135,1.962,1.338,0.557,1.007,0.940,�k�k��,13.9,�L
2017/01/09,07:00,1.051,1.726,1.134,1.963,1.338,0.554,1.006,0.941,�k�k��,12.0,�L
2017/01/09,07:10,1.048,1.722,1.135,1.965,1.337,0.556,1.007,0.939,�k�k��,13.5,�L
2017/01/09,07:20,1.046,1.719,1.134,1.961,1.336,0.554,1.006,0.939,�k�k��,12.8,�L
2017/01/09,07:30,1.048,1.719,1.133,1.963,1.335,0.555,1.008,0.939,�k�k��,11.3,�L
2017/01/09,07:40,1.047,1.718,1.135,1.962,1.339,0.554,1.006,0.937,�k�k��,10.2,�L
2017/01/09,07:50,1.047,1.722,1.134,1.960,1.337,0.554,1.005,0.937,�k�k��,13.0,�L
2017/01/09,08:00,1.049,1.722,1.128,1.965,1.341,0.553,1.007,0.939,�k�k��,11.6,�L
2017/01/09,08:10,1.049,1.728,1.131,1.966,1.343,0.555,1.007,0.939,�k�k��,12.1,��
2017/01/09,08:20,1.051,1.730,1.131,1.972,1.344,0.554,1.006,0.941,�k�k��,11.3,��
2017/01/09,08:30,1.050,1.731,1.131,1.969,1.344,0.555,1.008,0.941,�k�k��,11.7,��
2017/01/09,08:40,1.051,1.733,1.134,1.974,1.348,0.555,1.008,0.942,�k�k��,10.0,��
2017/01/09,08:50,1.052,1.734,1.135,1.975,1.348,0.555,1.008,0.941,�k�k��,11.3,��
2017/01/09,09:00,1.056,1.736,1.137,1.975,1.348,0.555,1.010,0.940,�k�k��,9.9,��
2017/01/09,09:10,1.054,1.736,1.137,1.980,1.349,0.554,1.010,0.942,�k�k��,9.9,��
2017/01/09,09:20,1.056,1.738,1.139,1.976,1.352,0.555,1.012,0.942,�k�k��,9.3,��
2017/01/09,09:30,1.054,1.737,1.137,1.979,1.349,0.554,1.010,0.941,�k�k��,10.4,�L
2017/01/09,09:40,1.055,1.739,1.141,1.977,1.353,0.556,1.013,0.942,�k�k��,9.8,��
2017/01/09,09:50,1.061,1.740,1.142,1.981,1.354,0.556,1.013,0.943,�k�k��,10.2,��
2017/01/09,10:00,1.059,1.741,1.141,1.977,1.354,0.556,1.014,0.944,�k�k��,8.5,��
2017/01/09,10:10,1.059,1.744,1.142,1.982,1.358,0.555,1.014,0.943,�k�k��,13.6,��
2017/01/09,10:20,1.060,1.742,1.145,1.984,1.357,0.556,1.016,0.944,�k�k��,10.2,��
2017/01/09,10:30,1.062,1.745,1.146,1.986,1.358,0.556,1.015,0.945,�k�k��,10.5,��
2017/01/09,10:40,1.063,1.749,1.146,1.987,1.360,0.556,1.014,0.945,�k�k��,11.3,��
2017/01/09,10:50,1.064,1.751,1.148,1.989,1.358,0.555,1.017,0.944,�k�k��,11.3,��
2017/01/09,11:00,1.065,1.750,1.148,1.990,1.361,0.555,1.016,0.944,�k�k��,12.1,��
2017/01/09,11:10,1.066,1.750,1.149,1.992,1.365,0.556,1.016,0.946,�k�k��,10.5,��
2017/01/09,11:20,1.064,1.753,1.149,1.990,1.364,0.557,1.013,0.947,�k�k��,10.7,��
2017/01/09,11:30,1.062,1.755,1.149,1.991,1.364,0.556,1.015,0.946,�k�k��,9.3,��
2017/01/09,11:40,1.066,1.755,1.149,1.993,1.365,0.555,1.014,0.948,�k�k��,10.2,��
2017/01/09,11:50,1.064,1.757,1.150,1.992,1.367,0.558,1.012,0.947,�k�k��,9.7,��
2017/01/09,12:00,1.067,1.756,1.150,1.993,1.366,0.559,1.013,0.947,�k�k��,10.2,��
2017/01/09,12:10,1.068,1.753,1.148,1.993,1.367,0.557,1.015,0.947,�k�k��,7.4,��
2017/01/09,12:20,1.067,1.754,1.151,1.995,1.368,0.560,1.015,0.949,�k�k��,7.9,��
2017/01/09,12:30,1.067,1.758,1.151,1.997,1.369,0.559,1.016,0.947,�k�k��,8.5,��
2017/01/09,12:40,1.069,1.758,1.152,1.996,1.373,0.558,1.016,0.947,�k�k��,8.2,��
2017/01/09,12:50,1.068,1.761,1.151,1.995,1.372,0.558,1.016,0.947,�k�k��,8.3,��
2017/01/09,13:00,1.068,1.758,1.152,1.999,1.370,0.559,1.015,0.946,�k�k��,8.1,��
2017/01/09,13:10,1.069,1.765,1.152,1.998,1.371,0.558,1.015,0.948,�k�k��,7.8,��
2017/01/09,13:20,1.068,1.762,1.151,1.999,1.374,0.557,1.017,0.949,�k�k��,7.3,��
2017/01/09,13:30,1.070,1.762,1.156,1.999,1.370,0.557,1.015,0.948,�k�k��,8.5,��
2017/01/09,13:40,1.070,1.763,1.151,1.999,1.374,0.556,1.017,0.948,�k�k��,6.9,��
2017/01/09,13:50,1.071,1.763,1.153,2.000,1.372,0.557,1.017,0.948,�k�k��,8.2,��
2017/01/09,14:00,1.069,1.763,1.153,1.999,1.372,0.559,1.018,0.948,�k�k��,7.0,��
2017/01/09,14:10,1.071,1.763,1.152,2.001,1.373,0.556,1.017,0.949,�k�k��,5.9,��
2017/01/09,14:20,1.070,1.764,1.155,2.000,1.374,0.558,1.015,0.948,�k�k��,7.0,��
2017/01/09,14:30,1.069,1.764,1.153,2.000,1.374,0.557,1.018,0.948,�k�k��,6.4,��
2017/01/09,14:40,1.069,1.762,1.153,1.996,1.375,0.557,1.019,0.949,�k�k��,8.0,��
2017/01/09,14:50,1.073,1.767,1.156,2.001,1.375,0.558,1.017,0.947,�k�k��,7.1,��
2017/01/09,15:00,1.071,1.765,1.156,2.003,1.374,0.559,1.019,0.946,�k�k��,5.6,��
2017/01/09,15:10,1.071,1.767,1.154,2.002,1.375,0.557,1.017,0.948,�k�k��,5.8,��
2017/01/09,15:20,1.071,1.765,1.156,2.000,1.377,0.557,1.016,0.949,�k�k��,4.6,��
2017/01/09,15:30,1.071,1.769,1.156,2.004,1.377,0.558,1.017,0.948,�k�k��,4.6,��
2017/01/09,15:40,1.072,1.767,1.154,2.005,1.376,0.558,1.019,0.947,�k,6.1,��
2017/01/09,15:50,1.071,1.766,1.152,2.005,1.375,0.558,1.017,0.948,�k,5.7,��
2017/01/09,16:00,1.070,1.768,1.157,2.003,1.376,0.559,1.017,0.949,�k,5.2,��
2017/01/09,16:10,1.070,1.767,1.155,2.003,1.377,0.559,1.019,0.949,�k,5.7,��
2017/01/09,16:20,1.071,1.769,1.156,2.001,1.376,0.560,1.019,0.948,�k,5.4,��
2017/01/09,16:30,1.070,1.767,1.156,2.004,1.376,0.559,1.018,0.947,�k,5.6,��
2017/01/09,16:40,1.073,1.769,1.155,2.003,1.375,0.558,1.020,0.947,�k,5.3,��
2017/01/09,16:50,1.071,1.767,1.156,2.002,1.377,0.559,1.020,0.949,�k,5.1,��
2017/01/09,17:00,1.069,1.768,1.155,2.003,1.376,0.560,1.020,0.948,�k�k��,5.3,��
2017/01/09,17:10,1.072,1.766,1.153,2.004,1.376,0.559,1.021,0.946,�k,5.0,��
2017/01/09,17:20,1.072,1.766,1.156,2.004,1.372,0.558,1.021,0.948,�k�k��,5.2,��
2017/01/09,17:30,1.069,1.768,1.157,2.001,1.379,0.559,1.019,0.948,�k�k��,6.1,��
2017/01/09,17:40,1.070,1.767,1.154,2.002,1.375,0.558,1.018,0.948,�k�k��,6.2,��
2017/01/09,17:50,1.072,1.765,1.153,2.005,1.377,0.557,1.021,0.947,�k�k��,5.7,��
2017/01/09,18:00,1.069,1.765,1.153,2.005,1.377,0.558,1.020,0.946,�k�k��,5.0,��
2017/01/09,18:10,1.070,1.765,1.155,2.002,1.376,0.558,1.020,0.947,�k��,4.7,��
2017/01/09,18:20,1.067,1.769,1.156,2.004,1.377,0.558,1.019,0.949,�k��,4.3,��
2017/01/09,18:30,1.068,1.765,1.151,2.001,1.375,0.557,1.019,0.946,�k�k��,4.5,��
2017/01/09,18:40,1.069,1.765,1.155,2.000,1.376,0.558,1.019,0.946,�k��,3.8,��
2017/01/09,18:50,1.067,1.766,1.154,2.004,1.376,0.558,1.021,0.948,�k�k��,5.1,��
2017/01/09,19:00,1.068,1.766,1.154,2.003,1.373,0.557,1.020,0.947,�k��,7.2,��
2017/01/09,19:10,1.068,1.765,1.152,2.004,1.376,0.558,1.020,0.946,�k��,8.0,��
2017/01/09,19:20,1.070,1.768,1.153,2.003,1.378,0.557,1.019,0.949,�k��,7.2,��
2017/01/09,19:30,1.070,1.768,1.156,2.003,1.376,0.558,1.020,0.947,�k��,7.5,��
2017/01/09,19:40,1.069,1.768,1.156,2.004,1.377,0.557,1.020,0.947,�k��,8.7,��
2017/01/09,19:50,1.069,1.768,1.156,2.006,1.378,0.560,1.019,0.948,�k��,11.1,��
2017/01/09,20:00,1.071,1.769,1.155,2.005,1.379,0.560,1.020,0.949,�k��,13.9,��
2017/01/09,20:10,1.072,1.768,1.157,2.003,1.375,0.558,1.022,0.948,�k��,11.8,��
2017/01/09,20:20,1.070,1.768,1.159,2.006,1.376,0.558,1.022,0.947,�k��,10.3,��
2017/01/09,20:30,1.071,1.766,1.156,2.006,1.378,0.559,1.021,0.946,�k�k��,10.8,��
2017/01/09,20:40,1.070,1.769,1.155,2.009,1.378,0.558,1.020,0.949,�k�k��,9.7,��
2017/01/09,20:50,1.072,1.769,1.155,2.005,1.378,0.560,1.021,0.948,�k�k��,8.2,��
2017/01/09,21:00,1.073,1.769,1.156,2.006,1.377,0.559,1.022,0.948,�k�k��,8.4,��
2017/01/09,21:10,1.070,1.769,1.157,2.006,1.379,0.561,1.022,0.947,�k��,8.2,��
2017/01/09,21:20,1.071,1.769,1.156,2.007,1.379,0.558,1.023,0.949,�k�k��,7.5,��
2017/01/09,21:30,1.069,1.771,1.154,2.007,1.380,0.559,1.022,0.947,�k��,7.5,��
2017/01/09,21:40,1.069,1.768,1.157,2.008,1.379,0.559,1.021,0.948,�k�k��,10.0,��
2017/01/09,21:50,1.070,1.772,1.157,2.009,1.378,0.558,1.022,0.947,�k��,10.6,��
2017/01/09,22:00,1.072,1.772,1.158,2.010,1.377,0.558,1.020,0.948,�k�k��,10.0,��
2017/01/09,22:10,1.068,1.772,1.155,2.006,1.380,0.558,1.021,0.949,�k��,10.2,��
2017/01/09,22:20,1.071,1.771,1.156,2.010,1.379,0.558,1.022,0.948,�k��,8.0,��
2017/01/09,22:30,1.069,1.770,1.159,2.013,1.380,0.558,1.022,0.947,�k��,8.4,��
2017/01/09,22:40,1.072,1.772,1.159,2.010,1.377,0.561,1.022,0.949,�k��,6.5,��
2017/01/09,22:50,1.070,1.768,1.155,2.009,1.378,0.559,1.023,0.949,�k��,6.4,��
2017/01/09,23:00,1.070,1.773,1.157,2.014,1.378,0.560,1.021,0.948,�k��,4.9,��
2017/01/09,23:10,1.071,1.771,1.155,2.005,1.380,0.559,1.020,0.950,���k��,2.6,��
2017/01/09,23:20,1.070,1.770,1.159,2.009,1.378,0.559,1.021,0.950,���k��,3.8,��
2017/01/09,23:30,1.067,1.770,1.154,2.009,1.380,0.559,1.019,0.948,���k��,2.3,��
2017/01/09,23:40,1.071,1.771,1.156,2.005,1.379,0.558,1.020,0.949,�k��,3.7,��
2017/01/09,23:50,1.073,1.770,1.155,2.008,1.377,0.560,1.022,0.948,��,3.3,��
